1545865200.38,51248,0.0,0.0,-8.55,-9.45,-9.45,0,*52
1545865202.88,51250,0.0,0.0,-8.55,-9.45,-9.45,0,*5B
1545865204.15,51251,0.0,0.0,-8.51,-9.41,-9.45,0,*5A
1545865205.4,51252,0.0,0.0,-8.55,-9.45,-9.41,0,*5D
1545865206.68,51253,0.0,0.0,-8.51,-9.41,-9.49,0,*54
1545865207.93,51254,0.0,0.0,-8.55,-9.45,-9.45,0,*5F
1545865209.18,51255,0.0,0.0,-8.55,-9.45,-9.45,0,*5E
1545865210.43,51256,0.0,0.0,-8.55,-9.45,-9.45,0,*5D
1545865211.68,51257,0.0,0.0,-8.55,-9.45,-9.45,0,*5C
1545865212.93,51258,0.0,0.0,-8.55,-9.45,-9.53,0,*54
1545865214.2,51259,0.0,0.0,-8.51,-9.41,-9.41,0,*56
1545865215.45,51260,0.0,0.0,-8.55,-9.45,-9.53,0,*5F
1545865216.7,51261,0.0,0.0,-8.55,-9.45,-9.45,0,*59
1545865217.95,51262,0.0,0.0,-8.55,-9.45,-9.45,0,*5A
1545865219.2,51263,0.0,0.0,-8.55,-9.45,-9.45,0,*5B
1545865221.69,51265,0.0,0.0,-8.55,-9.45,-9.45,0,*5D
1545865222.94,51266,0.0,0.0,-8.55,-9.45,-9.53,0,*59
1545865224.22,51267,0.0,0.0,-8.51,-9.41,-9.41,0,*5B
1545865225.47,51268,0.0,0.0,-8.55,-9.45,-9.53,0,*57
1545865226.74,51269,0.0,0.0,-8.51,-9.49,-9.49,0,*55
1545865228.02,51270,0.0,0.0,-8.51,-9.41,-9.49,0,*55
1545865229.27,51271,0.0,0.0,-8.55,-9.53,-9.45,0,*5F
1545865230.52,51272,0.0,0.0,-8.55,-9.45,-9.53,0,*5C
1545865231.79,51273,0.0,0.0,-8.51,-9.41,-9.41,0,*5E
1545865233.04,51274,0.0,0.0,-8.55,-9.45,-9.53,0,*5A
1545865234.29,51275,0.0,0.0,-8.55,-9.45,-9.45,0,*5C
1545865235.54,51276,0.0,0.0,-8.55,-9.45,-9.53,0,*58
1545865236.79,51277,0.0,0.0,-8.55,-9.45,-9.45,0,*5E
1545865238.04,51278,0.0,0.0,-8.55,-9.53,-9.53,0,*51
1545865239.28,51279,0.0,0.0,-8.55,-9.53,-9.53,0,*50
1545865240.53,51280,0.0,0.0,-8.55,-9.53,-9.53,0,*56
1545865241.81,51281,0.0,0.0,-8.51,-9.41,-9.49,0,*5B
1545865243.05,51282,0.0,0.0,-8.55,-9.53,-9.53,0,*54
1545865244.3,51283,0.0,0.0,-8.55,-9.53,-9.45,0,*52
1545865245.57,51284,0.0,0.0,-8.51,-9.49,-9.49,0,*56
1545865246.82,51285,0.0,0.0,-8.55,-9.49,-9.41,0,*5B
1545865248.06,51286,0.0,0.0,-8.55,-9.53,-9.53,0,*50
1545865249.31,51287,0.0,0.0,-8.55,-9.53,-9.45,0,*56
1545865250.58,51288,0.0,0.0,-8.51,-9.49,-9.41,0,*52
1545865254.37,51291,0.0,0.0,-8.51,-9.49,-9.49,0,*52
1545865255.62,51292,0.0,0.0,-8.55,-9.45,-9.45,0,*55
1545865256.86,51293,0.0,0.0,-8.55,-9.53,-9.45,0,*53
1545865258.13,51294,0.0,0.0,-8.51,-9.49,-9.41,0,*5F
1545865260.65,51296,0.0,0.0,-8.55,-9.53,-9.57,0,*55
1545865261.9,51297,0.0,0.0,-8.55,-9.45,-9.53,0,*57
1545865263.15,51298,0.0,0.0,-8.55,-9.53,-9.45,0,*58
1545865264.4,51299,0.0,0.0,-8.55,-9.45,-9.53,0,*59
1545865265.65,51300,0.0,0.0,-8.55,-9.45,-9.53,0,*58
1545865266.89,51301,0.0,0.0,-8.55,-9.53,-9.45,0,*59
1545865268.14,51302,0.0,0.0,-8.55,-9.53,-9.53,0,*5D
1545865269.38,51303,0.0,0.0,-8.55,-9.53,-9.53,0,*5C
1545865270.62,51304,0.0,0.0,-8.55,-9.57,-9.45,0,*58
1545865271.86,51305,0.0,0.0,-8.55,-9.57,-9.45,0,*59
1545865274.35,51307,0.0,0.0,-8.55,-9.53,-9.45,0,*5F
1545865275.59,51308,0.0,0.0,-8.55,-9.53,-9.57,0,*53
1545865276.87,51309,0.0,0.0,-8.51,-9.49,-9.53,0,*59
1545865278.11,51310,0.0,0.0,-8.55,-9.57,-9.53,0,*5A
1545865279.35,51311,0.0,0.0,-8.55,-9.57,-9.53,0,*5B
1545865280.6,51312,0.0,0.0,-8.55,-9.53,-9.53,0,*5C
1545865281.84,51313,0.0,0.0,-8.55,-9.57,-9.53,0,*59
1545865283.08,51314,0.0,0.0,-8.55,-9.57,-9.57,0,*5A
1545865284.32,51315,0.0,0.0,-8.55,-9.57,-9.53,0,*5F
1545865285.56,51316,0.0,0.0,-8.55,-9.57,-9.53,0,*5C
1545865286.8,51317,0.0,0.0,-8.55,-9.57,-9.53,0,*5D
1545865288.02,51318,0.0,0.0,-8.55,-9.67,-9.53,0,*51
1545865289.27,51319,0.0,0.0,-8.55,-9.57,-9.53,0,*53
1545865290.51,51320,0.0,0.0,-8.55,-9.57,-9.53,0,*59
1545865291.74,51321,0.0,0.0,-8.55,-9.57,-9.57,0,*5C
1545865292.96,51322,0.0,0.0,-8.55,-9.57,-9.67,0,*5C
1545865294.15,51323,0.0,0.0,-8.55,-9.67,-9.67,0,*5E
1545865295.39,51324,0.0,0.0,-8.55,-9.57,-9.57,0,*59
1545865296.62,51325,0.0,0.0,-8.55,-9.57,-9.57,0,*58
1545865297.86,51326,0.0,0.0,-8.55,-9.57,-9.57,0,*5B
1545865299.1,51327,0.0,0.0,-8.55,-9.57,-9.57,0,*5A
1545865300.31,51328,0.0,0.0,-8.55,-9.67,-9.57,0,*56
1545865301.55,51329,0.0,0.0,-8.55,-9.57,-9.57,0,*54
1545865302.77,51330,0.0,0.0,-8.55,-9.67,-9.53,0,*5B
1545865304.01,51331,0.0,0.0,-8.55,-9.53,-9.53,0,*5D
1545865305.25,51332,0.0,0.0,-8.55,-9.57,-9.57,0,*5E
1545865306.45,51333,0.0,0.0,-8.55,-9.67,-9.67,0,*5F
1545865307.66,51334,0.0,0.0,-8.55,-9.67,-9.57,0,*5B
1545865308.86,51335,0.0,0.0,-8.55,-9.67,-9.67,0,*59
1545865310.1,51336,0.0,0.0,-8.55,-9.57,-9.53,0,*5E
1545865311.29,51337,0.0,0.0,-8.59,-9.67,-9.67,0,*57
1545865312.5,51338,0.0,0.0,-8.59,-9.57,-9.67,0,*5B
1545865313.7,51339,0.0,0.0,-8.59,-9.67,-9.67,0,*59
1545865314.89,51340,0.0,0.0,-8.59,-9.67,-9.67,0,*57
1545865318.54,51343,0.0,0.0,-8.59,-9.67,-9.57,0,*57
1545865319.75,51344,0.0,0.0,-8.59,-9.67,-9.61,0,*55
1545865320.98,51345,0.0,0.0,-8.59,-9.57,-9.57,0,*52
1545865322.22,51346,0.0,0.0,-8.59,-9.57,-9.57,0,*51
1545865323.45,51347,0.0,0.0,-8.59,-9.57,-9.57,0,*50
1545865324.69,51348,0.0,0.0,-8.59,-9.57,-9.53,0,*5B
1545865325.9,51349,0.0,0.0,-8.59,-9.57,-9.67,0,*5D
1545865327.13,51350,0.0,0.0,-8.59,-9.57,-9.57,0,*56
1545865328.36,51351,0.0,0.0,-8.59,-9.57,-9.57,0,*57
1545865329.63,51352,0.0,0.0,-8.61,-9.57,-9.61,0,*5A
1545865330.86,51353,0.0,0.0,-8.59,-9.57,-9.57,0,*55
1545865332.1,51354,0.0,0.0,-8.59,-9.57,-9.53,0,*56
1545865333.34,51355,0.0,0.0,-8.59,-9.57,-9.53,0,*57
1545865334.58,51356,0.0,0.0,-8.59,-9.57,-9.53,0,*54
1545865335.81,51357,0.0,0.0,-8.59,-9.53,-9.57,0,*55
1545865337.09,51358,0.0,0.0,-8.61,-9.49,-9.49,0,*55
1545865338.34,51359,0.0,0.0,-8.59,-9.45,-9.53,0,*58
1545865339.58,51360,0.0,0.0,-8.55,-9.53,-9.45,0,*5E
1545865340.83,51361,0.0,0.0,-8.55,-9.53,-9.53,0,*58
1545865342.07,51362,0.0,0.0,-8.59,-9.57,-9.53,0,*53
1545865343.3,51363,0.0,0.0,-8.59,-9.57,-9.53,0,*52
1545865344.54,51364,0.0,0.0,-8.59,-9.45,-9.57,0,*52
1545865345.78,51365,0.0,0.0,-8.59,-9.53,-9.57,0,*54
1545865347.01,51366,0.0,0.0,-8.59,-9.57,-9.57,0,*53
1545865348.25,51367,0.0,0.0,-8.59,-9.57,-9.53,0,*56
1545865349.49,51368,0.0,0.0,-8.59,-9.57,-9.53,0,*59
1545865350.75,51369,0.0,0.0,-8.61,-9.57,-9.57,0,*57
1545865352.0,51370,0.0,0.0,-8.55,-9.53,-9.45,0,*5F
1545865353.24,51371,0.0,0.0,-8.59,-9.45,-9.53,0,*52
1545865354.49,51372,0.0,0.0,-8.59,-9.53,-9.53,0,*56
1545865355.73,51373,0.0,0.0,-8.59,-9.45,-9.45,0,*57
1545865356.97,51374,0.0,0.0,-8.59,-9.53,-9.45,0,*57
1545865358.21,51375,0.0,0.0,-8.59,-9.53,-9.45,0,*56
1545865359.46,51376,0.0,0.0,-8.59,-9.53,-9.53,0,*52
1545865360.7,51377,0.0,0.0,-8.59,-9.53,-9.53,0,*53
1545865361.94,51378,0.0,0.0,-8.59,-9.53,-9.57,0,*58
1545865363.18,51379,0.0,0.0,-8.59,-9.53,-9.53,0,*5D
1545865364.45,51380,0.0,0.0,-8.61,-9.61,-9.61,0,*50
1545865365.68,51381,0.0,0.0,-8.59,-9.57,-9.57,0,*5A
1545865366.92,51382,0.0,0.0,-8.59,-9.57,-9.53,0,*5D
1545865368.16,51383,0.0,0.0,-8.59,-9.53,-9.45,0,*5F
1545865369.41,51384,0.0,0.0,-8.59,-9.53,-9.53,0,*5F
1545865370.67,51385,0.0,0.0,-8.61,-9.57,-9.61,0,*50
1545865371.91,51386,0.0,0.0,-8.59,-9.57,-9.57,0,*5D
1545865373.15,51387,0.0,0.0,-8.59,-9.53,-9.53,0,*5C
1545865374.4,51388,0.0,0.0,-8.59,-9.45,-9.53,0,*54
1545865375.66,51389,0.0,0.0,-8.61,-9.57,-9.49,0,*56
1545865376.93,51390,0.0,0.0,-8.61,-9.57,-9.57,0,*51
1545865378.17,51391,0.0,0.0,-8.59,-9.53,-9.53,0,*5B
1545865379.42,51392,0.0,0.0,-8.59,-9.45,-9.53,0,*5F
1545865380.66,51393,0.0,0.0,-8.59,-9.57,-9.53,0,*5D
1545865381.88,51394,0.0,0.0,-8.59,-9.67,-9.53,0,*59
1545865383.11,51395,0.0,0.0,-8.59,-9.57,-9.53,0,*5B
1545865384.39,51396,0.0,0.0,-8.61,-9.57,-9.45,0,*54
1545865385.63,51397,0.0,0.0,-8.59,-9.53,-9.45,0,*5A
1545865386.9,51398,0.0,0.0,-8.61,-9.49,-9.49,0,*59
1545865388.15,51399,0.0,0.0,-8.59,-9.45,-9.45,0,*53
1545865389.39,51400,0.0,0.0,-8.59,-9.53,-9.45,0,*53
1545865390.63,51401,0.0,0.0,-8.59,-9.45,-9.53,0,*52
1545865391.88,51402,0.0,0.0,-8.59,-9.45,-9.45,0,*56
1545865393.13,51403,0.0,0.0,-8.59,-9.45,-9.45,0,*57
1545865394.37,51404,0.0,0.0,-8.59,-9.45,-9.45,0,*50
1545865395.62,51405,0.0,0.0,-8.59,-9.45,-9.45,0,*51
1545865396.86,51406,0.0,0.0,-8.59,-9.45,-9.45,0,*52
1545865398.11,51407,0.0,0.0,-8.59,-9.45,-9.45,0,*53
1545865399.36,51408,0.0,0.0,-8.55,-9.45,-9.45,0,*50
1545865400.6,51409,0.0,0.0,-8.55,-9.45,-9.45,0,*51
1545865401.85,51410,0.0,0.0,-8.55,-9.53,-9.45,0,*5E
1545865403.1,51411,0.0,0.0,-8.55,-9.45,-9.45,0,*58
1545865404.34,51412,0.0,0.0,-8.59,-9.45,-9.53,0,*50
1545865405.59,51413,0.0,0.0,-8.59,-9.45,-9.45,0,*56
1545865406.84,51414,0.0,0.0,-8.59,-9.45,-9.45,0,*51
1545865408.08,51415,0.0,0.0,-8.59,-9.45,-9.45,0,*50
1545865409.33,51416,0.0,0.0,-8.59,-9.45,-9.45,0,*53
1545865410.57,51417,0.0,0.0,-8.59,-9.41,-9.41,0,*52
1545865411.82,51418,0.0,0.0,-8.59,-9.37,-9.37,0,*5D
1545865413.07,51419,0.0,0.0,-8.59,-9.41,-9.37,0,*5D
1545865414.32,51420,0.0,0.0,-8.59,-9.41,-9.41,0,*56
1545865415.56,51421,0.0,0.0,-8.59,-9.41,-9.41,0,*57
1545865416.81,51422,0.0,0.0,-8.55,-9.41,-9.41,0,*58
1545865418.06,51423,0.0,0.0,-8.55,-9.41,-9.41,0,*59
1545865419.31,51424,0.0,0.0,-8.55,-9.41,-9.41,0,*5E
1545865420.56,51425,0.0,0.0,-8.55,-9.41,-9.41,0,*5F
1545865421.81,51426,0.0,0.0,-8.55,-9.41,-9.41,0,*5C
1545865423.06,51427,0.0,0.0,-8.59,-9.41,-9.45,0,*55
1545865424.31,51428,0.0,0.0,-8.59,-9.41,-9.53,0,*5D
1545865425.55,51429,0.0,0.0,-8.59,-9.53,-9.53,0,*5F
1545865426.8,51430,0.0,0.0,-8.55,-9.45,-9.53,0,*5C
1545865428.05,51431,0.0,0.0,-8.55,-9.45,-9.53,0,*5D
1545865429.3,51432,0.0,0.0,-8.55,-9.45,-9.53,0,*5E
1545865430.55,51433,0.0,0.0,-8.55,-9.45,-9.45,0,*58
1545865431.8,51434,0.0,0.0,-8.55,-9.53,-9.45,0,*58
1545865433.04,51435,0.0,0.0,-8.55,-9.53,-9.45,0,*59
1545865434.29,51436,0.0,0.0,-8.55,-9.45,-9.45,0,*5D
1545865435.53,51437,0.0,0.0,-8.55,-9.53,-9.45,0,*5B
1545865436.78,51438,0.0,0.0,-8.55,-9.53,-9.45,0,*54
1545865438.03,51439,0.0,0.0,-8.55,-9.45,-9.53,0,*55
1545865439.28,51440,0.0,0.0,-8.55,-9.45,-9.53,0,*5B
1545865440.53,51441,0.0,0.0,-8.55,-9.45,-9.53,0,*5A
1545865441.78,51442,0.0,0.0,-8.55,-9.53,-9.45,0,*59
1545865443.02,51443,0.0,0.0,-8.55,-9.45,-9.45,0,*5F
1545865444.27,51444,0.0,0.0,-8.55,-9.53,-9.45,0,*5F
1545865445.51,51445,0.0,0.0,-8.55,-9.53,-9.45,0,*5E
1545865446.76,51446,0.0,0.0,-8.55,-9.45,-9.45,0,*5A
1545865448.01,51447,0.0,0.0,-8.55,-9.45,-9.45,0,*5B
1545865449.26,51448,0.0,0.0,-8.55,-9.45,-9.45,0,*54
1545865450.54,51449,0.0,0.0,-8.51,-9.41,-9.37,0,*50
1545865451.79,51450,0.0,0.0,-8.55,-9.37,-9.37,0,*5D
1545865453.07,51451,0.0,0.0,-8.51,-9.37,-9.37,0,*58
1545865454.32,51452,0.0,0.0,-8.55,-9.41,-9.41,0,*5F
1545865455.57,51453,0.0,0.0,-8.55,-9.41,-9.41,0,*5E
1545865456.82,51454,0.0,0.0,-8.55,-9.41,-9.41,0,*59
1545865458.07,51455,0.0,0.0,-8.55,-9.41,-9.41,0,*58
1545865459.32,51456,0.0,0.0,-8.55,-9.45,-9.41,0,*5F
1545865460.56,51457,0.0,0.0,-8.55,-9.45,-9.41,0,*5E
1545865461.81,51458,0.0,0.0,-8.55,-9.45,-9.41,0,*51
1545865463.06,51459,0.0,0.0,-8.55,-9.41,-9.45,0,*50
1545865464.31,51460,0.0,0.0,-8.55,-9.45,-9.53,0,*59
1545865465.56,51461,0.0,0.0,-8.55,-9.45,-9.53,0,*58
1545865466.81,51462,0.0,0.0,-8.55,-9.53,-9.53,0,*5C
1545865468.05,51463,0.0,0.0,-8.55,-9.49,-9.49,0,*5D
1545865469.3,51464,0.0,0.0,-8.55,-9.53,-9.53,0,*5A
1545865470.55,51465,0.0,0.0,-8.55,-9.53,-9.53,0,*5B
1545865471.79,51466,0.0,0.0,-8.55,-9.53,-9.53,0,*58
1545865473.04,51467,0.0,0.0,-8.55,-9.53,-9.53,0,*59
1545865474.28,51468,0.0,0.0,-8.55,-9.53,-9.53,0,*56
1545865475.53,51469,0.0,0.0,-8.55,-9.53,-9.53,0,*57
1545865476.78,51470,0.0,0.0,-8.55,-9.45,-9.45,0,*5F
1545865478.06,51471,0.0,0.0,-8.51,-9.41,-9.53,0,*59
1545865479.34,51472,0.0,0.0,-8.51,-9.41,-9.41,0,*59
1545865480.59,51473,0.0,0.0,-8.55,-9.45,-9.45,0,*5C
1545865481.84,51474,0.0,0.0,-8.55,-9.41,-9.45,0,*5F
1545865483.09,51475,0.0,0.0,-8.55,-9.45,-9.45,0,*5A
1545865484.34,51476,0.0,0.0,-8.55,-9.45,-9.45,0,*59
1545865485.58,51477,0.0,0.0,-8.55,-9.45,-9.41,0,*5C
1545865486.83,51478,0.0,0.0,-8.55,-9.45,-9.41,0,*53
1545865488.08,51479,0.0,0.0,-8.55,-9.41,-9.37,0,*57
1545865489.33,51480,0.0,0.0,-8.55,-9.41,-9.41,0,*50
1545865490.58,51481,0.0,0.0,-8.55,-9.41,-9.37,0,*50
1545865491.83,51482,0.0,0.0,-8.55,-9.37,-9.41,0,*53
1545865493.08,51483,0.0,0.0,-8.55,-9.41,-9.41,0,*53
1545865494.33,51484,0.0,0.0,-8.55,-9.37,-9.41,0,*55
1545865495.58,51485,0.0,0.0,-8.55,-9.37,-9.41,0,*54
1545865496.83,51486,0.0,0.0,-8.55,-9.37,-9.41,0,*57
1545865499.34,51488,0.0,0.0,-8.51,-9.31,-9.37,0,*5A
1545865500.56,51489,0.0,0.0,-8.55,-9.31,-9.37,0,*5F
1545865501.82,51490,0.0,0.0,-8.55,-9.37,-9.37,0,*51
1545865503.07,51491,0.0,0.0,-8.55,-9.37,-9.41,0,*51
1545865504.35,51492,0.0,0.0,-8.51,-9.37,-9.37,0,*57
1545865505.63,51493,0.0,0.0,-8.51,-9.37,-9.37,0,*56
1545865506.91,51494,0.0,0.0,-8.51,-9.37,-9.37,0,*51
1545865508.16,51495,0.0,0.0,-8.55,-9.37,-9.41,0,*55
1545865509.43,51496,0.0,0.0,-8.51,-9.49,-9.37,0,*5A
1545865511.93,51498,0.0,0.0,-8.55,-9.41,-9.37,0,*58
1545865513.21,51499,0.0,0.0,-8.51,-9.41,-9.37,0,*5D
1545865514.46,51500,0.0,0.0,-8.55,-9.53,-9.45,0,*5E
1545865515.74,51501,0.0,0.0,-8.51,-9.41,-9.45,0,*58
1545865516.99,51502,0.0,0.0,-8.55,-9.45,-9.45,0,*5B
1545865518.26,51503,0.0,0.0,-8.51,-9.49,-9.41,0,*56
1545865519.51,51504,0.0,0.0,-8.55,-9.45,-9.53,0,*5A
1545865520.79,51505,0.0,0.0,-8.51,-9.41,-9.41,0,*58
1545865522.04,51506,0.0,0.0,-8.55,-9.45,-9.45,0,*5F
1545865524.56,51508,0.0,0.0,-8.51,-9.41,-9.49,0,*5D
1545865525.84,51509,0.0,0.0,-8.51,-9.41,-9.41,0,*54
1545865527.12,51510,0.0,0.0,-8.51,-9.41,-9.49,0,*54
1545865528.39,51511,0.0,0.0,-8.51,-9.49,-9.41,0,*55
1545865530.93,51513,0.0,0.0,-8.51,-9.49,-9.41,0,*57
1545865532.21,51514,0.0,0.0,-8.51,-9.49,-9.49,0,*58
1545865533.48,51515,0.0,0.0,-8.51,-9.49,-9.49,0,*59
1545865534.75,51516,0.0,0.0,-8.51,-9.49,-9.49,0,*5A
1545865536.0,51517,0.0,0.0,-8.55,-9.45,-9.53,0,*58
1545865537.25,51518,0.0,0.0,-8.55,-9.53,-9.45,0,*57
1545865538.49,51519,0.0,0.0,-8.55,-9.53,-9.53,0,*51
1545865539.77,51520,0.0,0.0,-8.51,-9.41,-9.49,0,*57
1545865541.04,51521,0.0,0.0,-8.51,-9.49,-9.41,0,*56
1545865542.32,51522,0.0,0.0,-8.51,-9.41,-9.49,0,*55
1545865543.57,51523,0.0,0.0,-8.55,-9.49,-9.45,0,*54
1545865544.84,51524,0.0,0.0,-8.51,-9.53,-9.49,0,*50
1545865546.08,51525,0.0,0.0,-8.55,-9.57,-9.53,0,*5A
1545865547.35,51526,0.0,0.0,-8.51,-9.53,-9.49,0,*52
1545865548.6,1527,0.0,0.0,-8.55,-9.57,-9.53,0,*58
1545865549.83,51528,0.0,0.0,-8.55,-9.57,-9.57,0,*53
1545865551.06,51529,0.0,0.0,-8.55,-9.57,-9.57,0,*52
1545865552.34,51530,0.0,0.0,-8.51,-9.61,-9.53,0,*5F
1545865553.58,51531,0.0,0.0,-8.55,-9.57,-9.53,0,*5F
1545865556.03,51533,0.0,0.0,-8.55,-9.67,-9.57,0,*5A
1545865557.27,51534,0.0,0.0,-8.55,-9.57,-9.57,0,*5E
1545865558.5,51535,0.0,0.0,-8.55,-9.57,-9.57,0,*5F
1545865559.72,51536,0.0,0.0,-8.55,-9.57,-9.67,0,*5F
1545865560.99,51537,0.0,0.0,-8.51,-9.53,-9.49,0,*52
1545865562.22,51538,0.0,0.0,-8.55,-9.57,-9.57,0,*52
1545865563.44,51539,0.0,0.0,-8.55,-9.67,-9.57,0,*50
1545865564.66,51540,0.0,0.0,-8.55,-9.67,-9.57,0,*5E
1545865565.89,51541,0.0,0.0,-8.55,-9.57,-9.57,0,*5C
1545865568.35,51543,0.0,0.0,-8.55,-9.53,-9.53,0,*5E
1545865569.6,51544,0.0,0.0,-8.55,-9.53,-9.53,0,*59
1545865570.83,51545,0.0,0.0,-8.55,-9.57,-9.57,0,*58
1545865572.07,51546,0.0,0.0,-8.55,-9.53,-9.57,0,*5F
1545865574.53,51548,0.0,0.0,-8.55,-9.67,-9.53,0,*52
1545865575.81,51549,0.0,0.0,-8.51,-9.49,-9.53,0,*5B
1545865577.05,51550,0.0,0.0,-8.55,-9.57,-9.53,0,*58
1545865578.32,51551,0.0,0.0,-8.51,-9.53,-9.49,0,*52
1545865579.59,51552,0.0,0.0,-8.51,-9.53,-9.49,0,*51
1545865580.83,51553,0.0,0.0,-8.55,-9.57,-9.53,0,*5B
1545865582.07,51554,0.0,0.0,-8.59,-9.57,-9.53,0,*50
1545865583.3,51555,0.0,0.0,-8.55,-9.67,-9.53,0,*5E
1545865584.57,51556,0.0,0.0,-8.51,-9.53,-9.49,0,*55
1545865585.81,51557,0.0,0.0,-8.55,-9.53,-9.53,0,*5B
1545865587.05,51558,0.0,0.0,-8.55,-9.57,-9.53,0,*50
1545865588.3,51559,0.0,0.0,-8.55,-9.53,-9.45,0,*52
1545865589.55,51560,0.0,0.0,-8.55,-9.45,-9.45,0,*5F
1545865590.8,51561,0.0,0.0,-8.55,-9.41,-9.45,0,*5A
1545865592.04,51562,0.0,0.0,-8.55,-9.53,-9.45,0,*5A
1545865593.29,51563,0.0,0.0,-8.55,-9.53,-9.53,0,*5C
1545865594.54,51564,0.0,0.0,-8.55,-9.45,-9.53,0,*5C
1545865595.79,51565,0.0,0.0,-8.55,-9.45,-9.45,0,*5A
1545865597.04,51566,0.0,0.0,-8.55,-9.45,-9.45,0,*59
1545865598.29,51567,0.0,0.0,-8.55,-9.45,-9.45,0,*58
1545865599.53,51568,0.0,0.0,-8.55,-9.45,-9.45,0,*57
1545865600.78,51569,0.0,0.0,-8.55,-9.45,-9.45,0,*56
1545865602.03,51570,0.0,0.0,-8.55,-9.45,-9.45,0,*5E
1545865603.28,51571,0.0,0.0,-8.55,-9.45,-9.45,0,*5F
1545865604.53,51572,0.0,0.0,-8.55,-9.45,-9.45,0,*5C
1545865605.78,51573,0.0,0.0,-8.55,-9.45,-9.45,0,*5D
1545865607.03,51574,0.0,0.0,-8.55,-9.45,-9.45,0,*5A
1545865608.28,51575,0.0,0.0,-8.55,-9.45,-9.45,0,*5B
1545865609.52,51576,0.0,0.0,-8.55,-9.53,-9.53,0,*58
1545865610.77,51577,0.0,0.0,-8.55,-9.45,-9.45,0,*59
1545865612.02,51578,0.0,0.0,-8.55,-9.53,-9.45,0,*51
1545865613.29,51579,0.0,0.0,-8.51,-9.49,-9.49,0,*53
1545865614.57,51580,0.0,0.0,-8.51,-9.41,-9.49,0,*5D
1545865615.84,51581,0.0,0.0,-8.51,-9.41,-9.49,0,*5C
1545865617.09,51582,0.0,0.0,-8.55,-9.45,-9.53,0,*54
1545865618.34,51583,0.0,0.0,-8.55,-9.53,-9.53,0,*52
1545865619.59,51584,0.0,0.0,-8.55,-9.53,-9.53,0,*55
1545865620.83,51585,0.0,0.0,-8.55,-9.53,-9.53,0,*54
1545865622.08,51586,0.0,0.0,-8.55,-9.45,-9.53,0,*50
1545865623.36,51587,0.0,0.0,-8.51,-9.49,-9.49,0,*52
1545865624.61,51588,0.0,0.0,-8.55,-9.45,-9.53,0,*5E
1545865625.88,51589,0.0,0.0,-8.51,-9.49,-9.49,0,*5C
1545865627.1,51590,0.0,0.0,-8.55,-9.45,-9.67,0,*50
1545865628.38,51591,0.0,0.0,-8.51,-9.41,-9.53,0,*56
1545865629.63,51592,0.0,0.0,-8.55,-9.53,-9.53,0,*52
1545865630.87,51593,0.0,0.0,-8.55,-9.53,-9.45,0,*54
1545865632.15,51594,0.0,0.0,-8.51,-9.49,-9.49,0,*50
1545865633.39,51595,0.0,0.0,-8.55,-9.53,-9.45,0,*52
1545865634.64,51596,0.0,0.0,-8.55,-9.53,-9.45,0,*51
1545865635.89,51597,0.0,0.0,-8.55,-9.41,-9.53,0,*54
1545865637.17,51598,0.0,0.0,-8.51,-9.41,-9.53,0,*5F
1545865638.45,51599,0.0,0.0,-8.51,-9.41,-9.53,0,*5E
1545865639.73,51600,0.0,0.0,-8.51,-9.41,-9.49,0,*56
1545865640.97,51601,0.0,0.0,-8.55,-9.53,-9.45,0,*5C
1545865642.25,51602,0.0,0.0,-8.51,-9.49,-9.41,0,*54
1545865643.5,51603,0.0,0.0,-8.55,-9.45,-9.45,0,*59
1545865644.74,51604,0.0,0.0,-8.55,-9.45,-9.45,0,*5E
1545865645.99,51605,0.0,0.0,-8.55,-9.53,-9.45,0,*58
1545865647.23,51606,0.0,0.0,-8.55,-9.53,-9.45,0,*5B
1545865648.48,51607,0.0,0.0,-8.55,-9.53,-9.45,0,*5A
1545865649.73,51608,0.0,0.0,-8.55,-9.45,-9.45,0,*52
1545865650.97,51609,0.0,0.0,-8.55,-9.45,-9.41,0,*57
1545865652.23,51610,0.0,0.0,-8.55,-9.41,-9.53,0,*58
1545865653.47,51611,0.0,0.0,-8.55,-9.53,-9.45,0,*5D
1545865656.0,51613,0.0,0.0,-8.51,-9.41,-9.37,0,*5D
1545865657.25,51614,0.0,0.0,-8.55,-9.45,-9.45,0,*5F
1545865658.5,51615,0.0,0.0,-8.55,-9.45,-9.45,0,*5E
1545865659.78,51616,0.0,0.0,-8.51,-9.41,-9.37,0,*58
1545865661.06,51617,0.0,0.0,-8.51,-9.41,-9.37,0,*59
1545865662.3,51618,0.0,0.0,-8.55,-9.45,-9.41,0,*57
1545865663.55,51619,0.0,0.0,-8.55,-9.45,-9.41,0,*56
1545865664.8,51620,0.0,0.0,-8.55,-9.41,-9.41,0,*58
1545865666.05,51621,0.0,0.0,-8.55,-9.41,-9.41,0,*59
1545865667.33,51622,0.0,0.0,-8.51,-9.37,-9.37,0,*5E
1545865668.58,51623,0.0,0.0,-8.55,-9.41,-9.41,0,*5B
1545865669.83,51624,0.0,0.0,-8.55,-9.41,-9.41,0,*5C
1545865671.08,51625,0.0,0.0,-8.55,-9.41,-9.41,0,*5D
1545865672.33,51626,0.0,0.0,-8.51,-9.31,-9.41,0,*5D
1545865673.61,51627,0.0,0.0,-8.51,-9.37,-9.37,0,*5B
1545865674.89,51628,0.0,0.0,-8.51,-9.37,-9.37,0,*54
1545865676.17,51629,0.0,0.0,-8.51,-9.37,-9.37,0,*55
1545865677.45,51630,0.0,0.0,-8.51,-9.37,-9.37,0,*5D
1545865678.73,51631,0.0,0.0,-8.51,-9.37,-9.37,0,*5C
1545865679.99,51632,0.0,0.0,-8.55,-9.41,-9.41,0,*5B
1545865681.27,51633,0.0,0.0,-8.51,-9.37,-9.37,0,*5E
1545865682.55,51634,0.0,0.0,-8.51,-9.41,-9.37,0,*58
1545865683.83,51635,0.0,0.0,-8.51,-9.41,-9.37,0,*59
1545865685.11,51636,0.0,0.0,-8.51,-9.41,-9.37,0,*5A
1545865686.39,51637,0.0,0.0,-8.51,-9.41,-9.41,0,*5A
1545865687.66,51638,0.0,0.0,-8.51,-9.49,-9.41,0,*5D
1545865688.93,51639,0.0,0.0,-8.51,-9.49,-9.41,0,*5C
1545865690.21,51640,0.0,0.0,-8.51,-9.41,-9.41,0,*5A
1545865691.46,51641,0.0,0.0,-8.55,-9.45,-9.45,0,*5F
1545865692.73,51642,0.0,0.0,-8.51,-9.41,-9.41,0,*58
1545865694.01,51643,0.0,0.0,-8.51,-9.41,-9.41,0,*59
1545865695.29,51644,0.0,0.0,-8.51,-9.41,-9.41,0,*5E
1545865696.57,51645,0.0,0.0,-8.51,-9.41,-9.41,0,*5F
1545865697.84,51646,0.0,0.0,-8.51,-9.49,-9.41,0,*54
1545865699.12,51647,0.0,0.0,-8.51,-9.41,-9.53,0,*5E
1545865700.39,51648,0.0,0.0,-8.51,-9.49,-9.41,0,*5A
1545865701.67,51649,0.0,0.0,-8.51,-9.49,-9.41,0,*5B
1545865702.94,51650,0.0,0.0,-8.51,-9.49,-9.41,0,*53
1545865704.21,51651,0.0,0.0,-8.51,-9.49,-9.41,0,*52
1545865705.46,51652,0.0,0.0,-8.55,-9.45,-9.45,0,*5D
1545865706.73,51653,0.0,0.0,-8.51,-9.49,-9.49,0,*58
1545865708.01,51654,0.0,0.0,-8.51,-9.41,-9.41,0,*5F
1545865709.29,51655,0.0,0.0,-8.51,-9.41,-9.41,0,*5E
1545865710.57,51656,0.0,0.0,-8.51,-9.41,-9.41,0,*5D
1545865711.84,51657,0.0,0.0,-8.51,-9.41,-9.41,0,*5C
1545865713.12,51658,0.0,0.0,-8.51,-9.41,-9.41,0,*53
1545865714.39,51659,0.0,0.0,-8.51,-9.53,-9.41,0,*51
1545865715.67,51660,0.0,0.0,-8.51,-9.41,-9.49,0,*50
1545865716.94,51661,0.0,0.0,-8.51,-9.49,-9.49,0,*59
1545865718.22,51662,0.0,0.0,-8.51,-9.49,-9.41,0,*52
1545865719.49,51663,0.0,0.0,-8.51,-9.41,-9.41,0,*5B
1545865720.74,51664,0.0,0.0,-8.55,-9.53,-9.53,0,*58
1545865722.02,51665,0.0,0.0,-8.51,-9.41,-9.41,0,*5D
1545865723.27,51666,0.0,0.0,-8.55,-9.41,-9.41,0,*5A
1545865724.54,51667,0.0,0.0,-8.51,-9.37,-9.41,0,*5E
1545865725.82,51668,0.0,0.0,-8.51,-9.37,-9.37,0,*50
1545865727.11,51669,0.0,0.0,-8.51,-9.37,-9.37,0,*51
1545865728.39,51670,0.0,0.0,-8.51,-9.37,-9.37,0,*59
1545865729.64,51671,0.0,0.0,-8.55,-9.41,-9.41,0,*5C
1545865730.92,51672,0.0,0.0,-8.51,-9.37,-9.37,0,*5B
1545865732.2,51673,0.0,0.0,-8.51,-9.37,-9.41,0,*5B
1545865733.47,51674,0.0,0.0,-8.51,-9.37,-9.41,0,*5C
1545865734.75,51675,0.0,0.0,-8.51,-9.37,-9.37,0,*5C
1545865736.04,51676,0.0,0.0,-8.51,-9.37,-9.37,0,*5F
1545865737.32,51677,0.0,0.0,-8.51,-9.37,-9.37,0,*5E
1545865738.6,51678,0.0,0.0,-8.51,-9.37,-9.37,0,*51
1545865739.88,51679,0.0,0.0,-8.51,-9.37,-9.37,0,*50
1545865741.16,51680,0.0,0.0,-8.51,-9.37,-9.37,0,*56
1545865742.41,51681,0.0,0.0,-8.51,-9.31,-9.37,0,*51
1545865743.69,51682,0.0,0.0,-8.51,-9.37,-9.37,0,*54
1545865744.89,51683,0.0,0.0,-8.49,-9.27,-9.31,0,*5B
1545865746.08,51684,0.0,0.0,-8.49,-9.31,-9.31,0,*5B
1545865747.27,51685,0.0,0.0,-8.49,-9.31,-9.31,0,*5A
1545865748.5,51686,0.0,0.0,-8.49,-9.37,-9.31,0,*5F
1545865750.94,51688,0.0,0.0,-8.49,-9.37,-9.31,0,*51
1545865752.16,51689,0.0,0.0,-8.49,-9.37,-9.31,0,*50
1545865753.41,51690,0.0,0.0,-8.47,-9.37,-9.31,0,*56
1545865754.68,51691,0.0,0.0,-8.51,-9.49,-9.41,0,*5E
1545865755.96,51692,0.0,0.0,-8.51,-9.41,-9.41,0,*55
1545865757.23,51693,0.0,0.0,-8.51,-9.41,-9.41,0,*54
1545865758.51,51694,0.0,0.0,-8.51,-9.41,-9.41,0,*53
1545865759.79,51695,0.0,0.0,-8.51,-9.41,-9.41,0,*52
1545865761.05,51696,0.0,0.0,-8.49,-9.37,-9.37,0,*58
1545865762.3,51697,0.0,0.0,-8.49,-9.37,-9.37,0,*59
1545865763.52,51698,0.0,0.0,-8.47,-9.31,-9.31,0,*58
1545865764.74,51699,0.0,0.0,-8.47,-9.31,-9.31,0,*59
1545865765.93,51700,0.0,0.0,-8.49,-9.31,-9.31,0,*56
1545865767.13,51701,0.0,0.0,-8.49,-9.31,-9.31,0,*57
1545865768.32,51702,0.0,0.0,-8.49,-9.31,-9.31,0,*54
1545865769.52,51703,0.0,0.0,-8.49,-9.31,-9.31,0,*55
1545865770.8,51704,0.0,0.0,-8.47,-9.37,-9.37,0,*5C
1545865772.05,51705,0.0,0.0,-8.49,-9.37,-9.37,0,*53
1545865773.33,51706,0.0,0.0,-8.47,-9.37,-9.37,0,*5E
1545865778.35,51710,0.0,0.0,-8.49,-9.37,-9.37,0,*57
1545865779.61,51711,0.0,0.0,-8.49,-9.37,-9.37,0,*56
1545865780.89,51712,0.0,0.0,-8.51,-9.41,-9.41,0,*5C
1545865782.16,51713,0.0,0.0,-8.51,-9.41,-9.41,0,*5D
1545865783.42,51714,0.0,0.0,-8.49,-9.45,-9.37,0,*56
1545865784.67,51715,0.0,0.0,-8.49,-9.37,-9.37,0,*52
1545865785.93,51716,0.0,0.0,-8.49,-9.37,-9.37,0,*51
1545865787.18,51717,0.0,0.0,-8.49,-9.37,-9.37,0,*50
1545865788.44,51718,0.0,0.0,-8.49,-9.37,-9.37,0,*5F
1545865790.94,51720,0.0,0.0,-8.49,-9.37,-9.37,0,*54
1545865792.2,51721,0.0,0.0,-8.49,-9.45,-9.37,0,*50
1545865793.47,51722,0.0,0.0,-8.47,-9.45,-9.45,0,*58
1545865794.72,51723,0.0,0.0,-8.49,-9.45,-9.45,0,*57
1545865797.25,51725,0.0,0.0,-8.49,-9.45,-9.49,0,*5D
1545865798.53,51726,0.0,0.0,-8.47,-9.45,-9.49,0,*50
1545865799.78,51727,0.0,0.0,-8.49,-9.45,-9.49,0,*5F
1545865801.05,51728,0.0,0.0,-8.47,-9.49,-9.49,0,*52
1545865802.3,51729,0.0,0.0,-8.49,-9.49,-9.45,0,*51
1545865803.55,51730,0.0,0.0,-8.49,-9.49,-9.45,0,*59
1545865804.8,51731,0.0,0.0,-8.49,-9.45,-9.45,0,*54